Flag for Germany Past Weather in Königs Wusterhausen, Brandenburg, Germany — Yesterday and Last 2 Weeks

Now
61 °F

Clear.


Feels Like: 61 °F
Forecast: 58 / 72 °F
Wind: No wind

Location: Berlin-Schoenefeld

Current Time: Jul 31, 2016 at 2:27:06 AM

Latest Report: Jul 31, 2016 at 1:50 AM


Visibility: 10 mi

Pressure: 29.89 "Hg

Humidity: 88%

Dew Point: 57 °F

Location of Königs WusterhausenLocation

Past Weather in Königs Wusterhausen — Graph

°F

Königs Wusterhausen Temperature Yesterday

Maximum temperature yesterday: 77 °F (at 4:20 PM)
Minimum temperature yesterday: 63 °F (at 4:20 AM)
Average temperature yesterday: 69 °F

High & Low Weather Summary for the Past Weeks

 TemperatureHumidityPressure
High86 °F (Jul 22, 4:20 PM)100% (Jul 25, 5:50 AM)30.24 "Hg (Jul 25, 5:50 AM)
Low45 °F (Jul 16, 4:20 AM)14% (Jul 22, 3:50 PM)29.83 "Hg (Jul 29, 6:20 PM)
Average70 °F66%30.04 "Hg
* Reported Jul 16 1:20 AM — Jul 31 1:20 AM, Königs Wusterhausen, Weather by CustomWeather, © 2016

Note: Actual official high and low records may vary slightly from our data, if they occured in-between our weather recording intervals... More about our weather records

Advertising

Königs Wusterhausen Weather History for the Previous 24 Hours

Scroll right to see more
 ConditionsComfort  
Time TempWeatherWind HumidityBarometerVisibility
1:20 AM
Sun, Jul 31
63 °FClear.No wind83%29.89 "Hg10 mi
12:50 AM64 °FClear.No wind73%29.89 "Hg10 mi
12:20 AM66 °FClear.2 mph68%29.89 "Hg10 mi
11:50 PM
Sat, Jul 30
66 °FClear.3 mph73%29.89 "Hg10 mi
11:20 PM63 °FClear.7 mph77%29.89 "Hg10 mi
10:50 PM64 °FClear.9 mph73%29.89 "Hg10 mi
10:20 PM66 °FClear.5 mph68%29.89 "Hg10 mi
9:50 PM66 °FSunny.6 mph68%29.89 "Hg10 mi
9:20 PM68 °FSunny.5 mph64%29.89 "Hg10 mi
8:50 PM70 °FSunny.5 mph60%29.86 "Hg10 mi
8:20 PM73 °FSunny.7 mph53%29.86 "Hg10 mi
7:50 PM73 °FSunny.12 mph53%29.86 "Hg10 mi
7:20 PM75 °FSunny.12 mph47%29.86 "Hg10 mi
6:50 PM75 °FSunny.12 mph47%29.86 "Hg10 mi
6:20 PM75 °FSunny.10 mph47%29.86 "Hg10 mi
5:50 PM77 °FPassing clouds.12 mph44%29.86 "HgN/A
5:20 PM77 °FPassing clouds.10 mph44%29.86 "HgN/A
4:50 PM77 °FPassing clouds.10 mph44%29.86 "HgN/A
4:20 PM77 °FPassing clouds.9 mph47%29.86 "HgN/A
3:50 PM75 °FPassing clouds.12 mph50%29.86 "HgN/A
3:20 PM73 °FScattered clouds.10 mph50%29.86 "HgN/A
2:50 PM72 °FScattered clouds.12 mph57%29.89 "HgN/A
2:20 PM73 °FPartly sunny.12 mph57%29.89 "HgN/A
1:50 PM72 °FBroken clouds.10 mph61%29.89 "HgN/A
1:20 PM70 °FBroken clouds.13 mph64%29.89 "HgN/A
12:50 PM70 °FPartly sunny.13 mph64%29.89 "HgN/A
12:20 PM70 °FPartly sunny.9 mph64%29.89 "HgN/A
11:50 AM70 °FPartly sunny.12 mph60%29.89 "HgN/A
11:20 AM72 °FBroken clouds.13 mph57%29.89 "HgN/A
10:50 AM70 °FPartly sunny.12 mph60%29.89 "HgN/A
10:20 AM70 °FPartly sunny.13 mph64%29.89 "HgN/A
9:50 AM70 °FPartly sunny.12 mph69%29.89 "HgN/A
9:20 AM68 °FBroken clouds.12 mph73%29.89 "HgN/A
8:50 AM66 °FBroken clouds.9 mph78%29.89 "HgN/A
8:20 AM66 °FPassing clouds.9 mph83%29.89 "HgN/A
7:50 AM66 °FSunny.8 mph83%29.89 "Hg10 mi
7:20 AM64 °FPassing clouds.7 mph88%29.86 "HgN/A
6:50 AM64 °FPassing clouds.6 mph88%29.86 "HgN/A
6:20 AM63 °FPassing clouds.3 mph94%29.86 "HgN/A
5:50 AM63 °FPassing clouds.5 mph94%29.86 "HgN/A
5:20 AM63 °FClear.3 mph94%29.86 "Hg10 mi
4:50 AM64 °FPassing clouds.5 mph88%29.86 "HgN/A
4:20 AM63 °FClear.5 mph94%29.86 "Hg10 mi
3:50 AM64 °FClear.8 mph88%29.86 "Hg10 mi
3:20 AM66 °FClear.2 mph83%29.86 "Hg10 mi
2:50 AM66 °FPassing clouds.5 mph83%29.86 "HgN/A
2:20 AM66 °FPartly cloudy.7 mph83%29.86 "HgN/A
Weather by CustomWeather, © 2016

See weather overviewHow to use our weather pages